,,Stat5,,Stat1,,Stat2,,Stat3,,Stat4,,Wind1,,Wind1,
time,status,PA1M_AVG,status,PR1M_SUM,status,RH1M_AVG,status,SR1M_AVG,status,TA1M_AVG,status,W1dAve1m,status,W1sAve1m,
2003-03-01, 00:00:00,VALID,917.157,VALID,0,VALID,91.0863,VALID,0.101885,VALID,17.7101,VALID,127,VALID,0.788218,
2003-03-01, 00:01:00,VALID,917.167,VALID,0,VALID,91.1791,VALID,0.101885,VALID,17.6912,VALID,99,VALID,0.714844,
2003-03-01, 00:02:00,VALID,917.185,VALID,0,VALID,91.6725,VALID,0.101885,VALID,17.6686,VALID,109,VALID,0.724724,
2003-03-01, 00:03:00,VALID,917.198,VALID,0,VALID,91.7399,VALID,0.101885,VALID,17.6626,VALID,129,VALID,0.81989,
2003-03-01, 00:04:00,VALID,917.218,VALID,0,VALID,91.4055,VALID,0.0849042,VALID,17.6681,VALID,123,VALID,0.477022,
2003-03-01, 00:05:00,VALID,917.212,VALID,0,VALID,91.1918,VALID,0.0849042,VALID,17.7136,VALID,143,VALID,0.549716,
2003-03-01, 00:06:00,VALID,917.207,VALID,0,VALID,90.4925,VALID,0.0339617,VALID,17.7631,VALID,136,VALID,0.71875,
2003-03-01, 00:07:00,VALID,917.185,VALID,0,VALID,89.9584,VALID,-0.0339617,VALID,17.8118,VALID,137,VALID,0.662454,
2003-03-01, 00:08:00,VALID,917.16,VALID,0,VALID,89.5527,VALID,-0.0509425,VALID,17.8799,VALID,144,VALID,0.56108,
2003-03-01, 00:09:00,VALID,917.143,VALID,0,VALID,88.8559,VALID,-0.0339617,VALID,17.9156,VALID,105,VALID,0.341797,
2003-03-01, 00:10:00,VALID,917.134,VALID,0,VALID,88.9843,VALID,-0.0509425,VALID,17.8831,VALID,85,VALID,0.379557,
2003-03-01, 00:11:00,VALID,917.122,VALID,0,VALID,89.3099,VALID,-0.0169808,VALID,17.7442,VALID,70,VALID,0.285275,
2003-03-01, 00:12:00,VALID,917.128,VALID,0,VALID,89.919,VALID,0,VALID,17.6152,VALID,69,VALID,0.496622,
2003-03-01, 00:13:00,VALID,917.114,VALID,0,VALID,90.612,VALID,-0.0339617,VALID,17.4985,VALID,61,VALID,0.777114,
2003-03-01, 00:14:00,VALID,917.107,VALID,0,VALID,90.8803,VALID,-0.0509425,VALID,17.4438,VALID,69,VALID,1.02486,
2003-03-01, 00:15:00,VALID,917.097,VALID,0,VALID,90.7595,VALID,-0.0169808,VALID,17.447,VALID,77,VALID,1.0727,
2003-03-01, 00:16:00,VALID,917.083,VALID,0,VALID,90.0881,VALID,-0.0169808,VALID,17.5543,VALID,103,VALID,1.16233,
2003-03-01, 00:17:00,VALID,917.072,VALID,0,VALID,88.9856,VALID,-0.0169808,VALID,17.7091,VALID,117,VALID,1.17188,
2003-03-01, 00:18:00,VALID,917.06,VALID,0,VALID,88.1247,VALID,0,VALID,17.8831,VALID,124,VALID,0.941723,
2003-03-01, 00:19:00,VALID,917.03,VALID,0,VALID,87.7166,VALID,-0.0339617,VALID,18.0163,VALID,130,VALID,0.808364,
2003-03-01, 00:20:00,VALID,917.012,VALID,0,VALID,87.2677,VALID,0,VALID,18.0707,VALID,118,VALID,1.05587,
2003-03-01, 00:21:00,VALID,917.006,VALID,0,VALID,86.7628,VALID,-0.0169808,VALID,18.1291,VALID,103,VALID,1.11328,
2003-03-01, 00:22:00,VALID,916.993,VALID,0,VALID,86.6586,VALID,-0.0169808,VALID,18.1704,VALID,101,VALID,0.915582,
2003-03-01, 00:23:00,VALID,916.984,VALID,0,VALID,86.258,VALID,-0.0169808,VALID,18.1907,VALID,93,VALID,1.00616,
2003-03-01, 00:24:00,VALID,916.984,VALID,0,VALID,86.1054,VALID,0,VALID,18.1965,VALID,112,VALID,1.11782,
2003-03-01, 00:25:00,VALID,916.989,VALID,0,VALID,85.7176,VALID,-0.0509425,VALID,18.2297,VALID,121,VALID,1.35018,
2003-03-01, 00:26:00,VALID,916.974,VALID,0,VALID,85.7201,VALID,-0.0169808,VALID,18.2648,VALID,131,VALID,1.11174,
2003-03-01, 00:27:00,VALID,916.957,VALID,0,VALID,85.6616,VALID,-0.0339617,VALID,18.275,VALID,140,VALID,1.14258,
2003-03-01, 00:28:00,VALID,916.932,VALID,0,VALID,85.5167,VALID,-0.0169808,VALID,18.2907,VALID,130,VALID,0.909939,
2003-03-01, 00:29:00,VALID,916.928,VALID,0,VALID,85.5599,VALID,-0.0169808,VALID,18.2904,VALID,127,VALID,0.950521,
2003-03-01, 00:30:00,VALID,916.915,VALID,0,VALID,85.6985,VALID,-0.0169808,VALID,18.2943,VALID,125,VALID,0.747889,
2003-03-01, 00:31:00,VALID,916.926,VALID,0,VALID,85.8282,VALID,0,VALID,18.2512,VALID,128,VALID,1.1273,
2003-03-01, 00:32:00,VALID,916.923,VALID,0,VALID,85.9172,VALID,-0.0169808,VALID,18.2099,VALID,132,VALID,1.11316,
2003-03-01, 00:33:00,VALID,916.935,VALID,0,VALID,85.9401,VALID,-0.0339617,VALID,18.1707,VALID,119,VALID,0.94987,
2003-03-01, 00:34:00,VALID,916.947,VALID,0,VALID,85.8575,VALID,-0.0339617,VALID,18.1739,VALID,100,VALID,1.02257,
2003-03-01, 00:35:00,VALID,916.926,VALID,0,VALID,85.7341,VALID,-0.0169808,VALID,18.1898,VALID,100,VALID,1.11529,
2003-03-01, 00:36:00,VALID,916.936,VALID,0,VALID,85.7049,VALID,-0.0169808,VALID,18.203,VALID,107,VALID,1.27259,
2003-03-01, 00:37:00,VALID,916.925,VALID,0,VALID,85.7545,VALID,-0.0169808,VALID,18.2159,VALID,102,VALID,1.40074,
2003-03-01, 00:38:00,VALID,916.916,VALID,0,VALID,85.4912,VALID,0,VALID,18.2708,VALID,98,VALID,1.18348,
2003-03-01, 00:39:00,VALID,916.902,VALID,0,VALID,85.7214,VALID,-0.0169808,VALID,18.2902,VALID,92,VALID,1.06879,
2003-03-01, 00:40:00,VALID,916.868,VALID,0,VALID,86.6433,VALID,-0.0679233,VALID,18.2713,VALID,85,VALID,1.07791,
2003-03-01, 00:41:00,VALID,916.848,VALID,0,VALID,87.0807,VALID,-0.0169808,VALID,18.232,VALID,81,VALID,1.00687,
2003-03-01, 00:42:00,VALID,916.836,VALID,0,VALID,86.8913,VALID,-0.0339617,VALID,18.158,VALID,86,VALID,0.864654,
2003-03-01, 00:43:00,VALID,916.823,VALID,0,VALID,88.4363,VALID,-0.0339617,VALID,18.0416,VALID,87,VALID,0.890855,
2003-03-01, 00:44:00,VALID,916.811,VALID,0,VALID,89.9635,VALID,-0.0339617,VALID,18.0384,VALID,112,VALID,1.15317,
2003-03-01, 00:45:00,VALID,916.795,VALID,0,VALID,89.7079,VALID,-0.0339617,VALID,18.1319,VALID,115,VALID,0.731771,
2003-03-01, 00:46:00,VALID,916.787,VALID,0,VALID,88.4185,VALID,-0.0169808,VALID,18.1773,VALID,102,VALID,0.648655,
2003-03-01, 00:47:00,VALID,916.782,VALID,0,VALID,88.7644,VALID,-0.0339617,VALID,18.0996,VALID,93,VALID,0.851326,
2003-03-01, 00:48:00,VALID,916.756,VALID,0,VALID,89.8172,VALID,0,VALID,18.0742,VALID,122,VALID,0.971284,
2003-03-01, 00:49:00,VALID,916.76,VALID,0,VALID,89.9686,VALID,-0.0339617,VALID,18.0352,VALID,134,VALID,1.01057,
2003-03-01, 00:50:00,VALID,916.737,VALID,0,VALID,90.0601,VALID,-0.0509425,VALID,18.0158,VALID,132,VALID,1.18797,
2003-03-01, 00:51:00,VALID,916.727,VALID,0,VALID,90.0805,VALID,-0.0169808,VALID,18.0029,VALID,138,VALID,1.2385,
2003-03-01, 00:52:00,VALID,916.722,VALID,0,VALID,90.0271,VALID,-0.0339617,VALID,17.9798,VALID,137,VALID,1.125,
2003-03-01, 00:53:00,VALID,916.728,VALID,0,VALID,90.3742,VALID,-0.0169808,VALID,17.9576,VALID,136,VALID,1.12405,
2003-03-01, 00:54:00,VALID,916.731,VALID,0,VALID,90.6476,VALID,0,VALID,17.9413,VALID,141,VALID,1.36444,
2003-03-01, 00:55:00,VALID,916.73,VALID,0,VALID,90.5662,VALID,0,VALID,17.9279,VALID,144,VALID,1.10409,
2003-03-01, 00:56:00,VALID,916.727,VALID,0,VALID,90.5637,VALID,0,VALID,17.9512,VALID,142,VALID,0.932292,
2003-03-01, 00:57:00,VALID,916.718,VALID,0,VALID,90.5993,VALID,-0.0169808,VALID,17.9676,VALID,137,VALID,1.04601,
2003-03-01, 00:58:00,VALID,916.701,VALID,0,VALID,90.8765,VALID,0,VALID,17.9904,VALID,143,VALID,1.17361,
2003-03-01, 00:59:00,VALID,916.676,VALID,0,VALID,91.1334,VALID,0,VALID,18.0287,VALID,133,VALID,0.881629,
2003-03-01, 01:00:00,VALID,916.663,VALID,0,VALID,91.0571,VALID,-0.0169808,VALID,18.1095,VALID,122,VALID,0.767314,
2003-03-01, 01:01:00,VALID,916.651,VALID,0,VALID,91.0914,VALID,-0.0169808,VALID,18.1448,VALID,120,VALID,0.857996,
2003-03-01, 01:02:00,VALID,916.63,VALID,0,VALID,91.9828,VALID,0,VALID,18.19,VALID,112,VALID,0.920218,
2003-03-01, 01:03:00,VALID,916.625,VALID,0,VALID,91.3597,VALID,0,VALID,18.2129,VALID,97,VALID,0.666667,
2003-03-01, 01:04:00,VALID,916.632,VALID,0,VALID,90.186,VALID,-0.0169808,VALID,18.103,VALID,84,VALID,0.7398,
2003-03-01, 01:05:00,VALID,916.642,VALID,0,VALID,92.5219,VALID,-0.0169808,VALID,18.064,VALID,101,VALID,0.860085,
2003-03-01, 01:06:00,VALID,916.662,VALID,0,VALID,92.8017,VALID,-0.0169808,VALID,18.1035,VALID,121,VALID,0.756546,
2003-03-01, 01:07:00,VALID,916.691,VALID,0,VALID,92.7763,VALID,-0.0339617,VALID,18.1261,VALID,132,VALID,0.961627,
2003-03-01, 01:08:00,VALID,916.704,VALID,0,VALID,92.2028,VALID,-0.0339617,VALID,18.1353,VALID,135,VALID,0.951705,
2003-03-01, 01:09:00,VALID,916.723,VALID,0,VALID,91.6382,VALID,-0.0339617,VALID,18.1393,VALID,140,VALID,1.05404,
2003-03-01, 01:10:00,VALID,916.735,VALID,0,VALID,91.3292,VALID,0,VALID,18.1125,VALID,126,VALID,1.05078,
2003-03-01, 01:11:00,VALID,916.74,VALID,0,VALID,91.1893,VALID,0,VALID,18.103,VALID,137,VALID,0.984375,
2003-03-01, 01:12:00,VALID,916.748,VALID,0,VALID,91.1664,VALID,-0.0169808,VALID,18.097,VALID,104,VALID,1.01478,
2003-03-01, 01:13:00,VALID,916.735,VALID,0,VALID,91.4118,VALID,-0.0169808,VALID,18.0906,VALID,94,VALID,0.763557,
2003-03-01, 01:14:00,VALID,916.719,VALID,0,VALID,91.3661,VALID,0,VALID,18.0804,VALID,103,VALID,0.772727,
2003-03-01, 01:15:00,VALID,916.697,VALID,0,VALID,91.1957,VALID,-0.0169808,VALID,18.071,VALID,99,VALID,0.852648,
2003-03-01, 01:16:00,VALID,916.7,VALID,0,VALID,91.0507,VALID,-0.0169808,VALID,18.0543,VALID,94,VALID,0.869575,
2003-03-01, 01:17:00,VALID,916.679,VALID,0,VALID,90.9846,VALID,-0.0169808,VALID,18.0419,VALID,99,VALID,0.947443,
2003-03-01, 01:18:00,VALID,916.68,VALID,0,VALID,90.8841,VALID,0,VALID,18.0553,VALID,100,VALID,0.873522,
2003-03-01, 01:19:00,VALID,916.691,VALID,0,VALID,90.8472,VALID,-0.0169808,VALID,18.055,VALID,102,VALID,0.639246,
2003-03-01, 01:20:00,VALID,916.705,VALID,0,VALID,90.921,VALID,-0.0339617,VALID,18.0352,VALID,111,VALID,0.712121,
2003-03-01, 01:21:00,VALID,916.7,VALID,0,VALID,91.1435,VALID,-0.0339617,VALID,18.0352,VALID,117,VALID,0.77474,
2003-03-01, 01:22:00,VALID,916.702,VALID,0,VALID,91.3025,VALID,0,VALID,18.0317,VALID,108,VALID,0.913845,
2003-03-01, 01:23:00,VALID,916.694,VALID,0,VALID,91.3241,VALID,-0.0509425,VALID,18.0386,VALID,98,VALID,0.820786,
2003-03-01, 01:24:00,VALID,916.69,VALID,0,VALID,91.2745,VALID,-0.0169808,VALID,18.0643,VALID,79,VALID,1.03378,
2003-03-01, 01:25:00,VALID,916.66,VALID,0,VALID,91.1295,VALID,-0.0169808,VALID,18.094,VALID,84,VALID,1.19003,
2003-03-01, 01:26:00,VALID,916.641,VALID,0,VALID,90.7264,VALID,-0.0679233,VALID,18.0839,VALID,93,VALID,1.23603,
2003-03-01, 01:27:00,VALID,916.622,VALID,0,VALID,89.6761,VALID,0,VALID,18.0806,VALID,94,VALID,1.33095,
2003-03-01, 01:28:00,VALID,916.598,VALID,0,VALID,88.9615,VALID,0,VALID,18.1259,VALID,89,VALID,1.28016,
2003-03-01, 01:29:00,VALID,916.588,VALID,0,VALID,88.2265,VALID,-0.0339617,VALID,18.1487,VALID,88,VALID,1.31345,
2003-03-01, 01:30:00,VALID,916.569,VALID,0,VALID,87.5462,VALID,-0.0169808,VALID,18.1616,VALID,89,VALID,1.41195,
2003-03-01, 01:31:00,VALID,916.545,VALID,0,VALID,86.6535,VALID,-0.0169808,VALID,18.1582,VALID,90,VALID,1.52137,
2003-03-01, 01:32:00,VALID,916.528,VALID,0,VALID,86.3521,VALID,-0.0169808,VALID,18.1231,VALID,88,VALID,1.28409,
2003-03-01, 01:33:00,VALID,916.522,VALID,0,VALID,85.6718,VALID,-0.0679233,VALID,18.0776,VALID,89,VALID,1.4822,
2003-03-01, 01:34:00,VALID,916.518,VALID,0,VALID,85.1517,VALID,-0.0169808,VALID,18.0449,VALID,92,VALID,1.55881,
2003-03-01, 01:35:00,VALID,916.499,VALID,0,VALID,84.858,VALID,-0.0509425,VALID,18.0449,VALID,95,VALID,1.43182,
2003-03-01, 01:36:00,VALID,916.489,VALID,0,VALID,84.9076,VALID,0.0339617,VALID,18.0375,VALID,93,VALID,1.34438,
2003-03-01, 01:37:00,VALID,916.483,VALID,0,VALID,85.2598,VALID,0.0509425,VALID,18.025,VALID,91,VALID,1.28079,
2003-03-01, 01:38:00,VALID,916.479,VALID,0,VALID,85.4709,VALID,0.0339617,VALID,17.9863,VALID,89,VALID,1.21283,
2003-03-01, 01:39:00,VALID,916.459,VALID,0,VALID,85.8308,VALID,0.0169808,VALID,17.941,VALID,91,VALID,1.40668,
2003-03-01, 01:40:00,VALID,916.456,VALID,0,VALID,86.244,VALID,0,VALID,17.896,VALID,113,VALID,1.57639,
2003-03-01, 01:41:00,VALID,916.441,VALID,0,VALID,85.8219,VALID,0.0509425,VALID,17.876,VALID,110,VALID,1.49455,
2003-03-01, 01:42:00,VALID,916.426,VALID,0,VALID,85.4671,VALID,0.0509425,VALID,17.8728,VALID,113,VALID,1.60431,
2003-03-01, 01:43:00,VALID,916.424,VALID,0,VALID,85.504,VALID,0.0169808,VALID,17.9053,VALID,111,VALID,1.50345,
2003-03-01, 01:44:00,VALID,916.405,VALID,0,VALID,85.4912,VALID,0.0339617,VALID,17.915,VALID,102,VALID,1.50047,
2003-03-01, 01:45:00,VALID,916.393,VALID,0,VALID,85.4251,VALID,0.0169808,VALID,17.9217,VALID,102,VALID,1.52387,
2003-03-01, 01:46:00,VALID,916.393,VALID,0,VALID,85.3654,VALID,0,VALID,17.9307,VALID,102,VALID,1.73524,
2003-03-01, 01:47:00,VALID,916.37,VALID,0,VALID,85.5408,VALID,0.0169808,VALID,17.9761,VALID,88,VALID,1.35085,
2003-03-01, 01:48:00,VALID,916.359,VALID,0,VALID,86.0355,VALID,0.0169808,VALID,17.9574,VALID,86,VALID,1.28209,
2003-03-01, 01:49:00,VALID,916.351,VALID,0,VALID,86.932,VALID,0.0339617,VALID,17.8407,VALID,103,VALID,1.38051,
2003-03-01, 01:50:00,VALID,916.348,VALID,0,VALID,87.6008,VALID,0.0339617,VALID,17.8377,VALID,108,VALID,1.40649,
2003-03-01, 01:51:00,VALID,916.339,VALID,0,VALID,87.9582,VALID,0,VALID,17.8435,VALID,122,VALID,1.51693,
2003-03-01, 01:52:00,VALID,916.328,VALID,0,VALID,88.2875,VALID,0.0339617,VALID,17.873,VALID,125,VALID,1.14497,
2003-03-01, 01:53:00,VALID,916.332,VALID,0,VALID,88.7771,VALID,0.0679233,VALID,17.8924,VALID,118,VALID,1.20881,
2003-03-01, 01:54:00,VALID,916.335,VALID,0,VALID,88.9716,VALID,0.101885,VALID,17.879,VALID,110,VALID,1.50422,
2003-03-01, 01:55:00,VALID,916.331,VALID,0,VALID,89.1217,VALID,0.0849042,VALID,17.876,VALID,108,VALID,1.51287,
2003-03-01, 01:56:00,VALID,916.328,VALID,0,VALID,89.7181,VALID,0.0509425,VALID,17.8958,VALID,112,VALID,1.53054,
2003-03-01, 01:57:00,VALID,916.338,VALID,0,VALID,89.863,VALID,0.101885,VALID,17.9021,VALID,112,VALID,1.31359,
2003-03-01, 01:58:00,VALID,916.34,VALID,0,VALID,90.1453,VALID,0.0509425,VALID,17.9117,VALID,120,VALID,1.07943,
2003-03-01, 01:59:00,VALID,916.333,VALID,0,VALID,90.3577,VALID,0.0339617,VALID,17.8988,VALID,119,VALID,0.846591,
2003-03-01, 02:00:00,VALID,916.335,VALID,0,VALID,90.4365,VALID,0.0339617,VALID,17.8732,VALID,109,VALID,0.764358,
2003-03-01, 02:01:00,VALID,916.322,VALID,0,VALID,90.8879,VALID,0.0679233,VALID,17.8215,VALID,107,VALID,0.855239,
2003-03-01, 02:02:00,VALID,916.324,VALID,0,VALID,91.1334,VALID,0.0679233,VALID,17.7498,VALID,97,VALID,0.912405,
2003-03-01, 02:03:00,VALID,916.305,VALID,0,VALID,92.171,VALID,0.0169808,VALID,17.6761,VALID,98,VALID,1.03299,
2003-03-01, 02:04:00,VALID,916.291,VALID,0,VALID,92.9759,VALID,0.0509425,VALID,17.6436,VALID,103,VALID,0.902127,
2003-03-01, 02:05:00,VALID,916.281,VALID,0,VALID,94.156,VALID,0.0339617,VALID,17.6602,VALID,117,VALID,1.31842,
2003-03-01, 02:06:00,VALID,916.248,VALID,0,VALID,95.4835,VALID,-0.0169808,VALID,17.7571,VALID,112,VALID,1.5568,
2003-03-01, 02:07:00,VALID,916.238,VALID,0,VALID,95.4861,VALID,-0.0849042,VALID,17.9073,VALID,106,VALID,1.15717,
2003-03-01, 02:08:00,VALID,916.212,VALID,0,VALID,94.5845,VALID,-0.101885,VALID,17.9454,VALID,79,VALID,0.709991,
2003-03-01, 02:09:00,VALID,916.201,VALID,0,VALID,92.616,VALID,-0.0509425,VALID,17.8422,VALID,84,VALID,0.47526,
2003-03-01, 02:10:00,VALID,916.186,VALID,0,VALID,93.2468,VALID,-0.0509425,VALID,17.7645,VALID,99,VALID,0.591146,
2003-03-01, 02:11:00,VALID,916.181,VALID,0,VALID,95.3131,VALID,-0.101885,VALID,17.7841,VALID,106,VALID,0.939394,
2003-03-01, 02:12:00,VALID,916.169,VALID,0,VALID,95.7175,VALID,-0.0679233,VALID,17.8582,VALID,106,VALID,0.929899,
2003-03-01, 02:13:00,VALID,916.163,VALID,0,VALID,95.9362,VALID,-0.0509425,VALID,17.9069,VALID,105,VALID,1.05699,
2003-03-01, 02:14:00,VALID,916.175,VALID,0,VALID,95.9502,VALID,-0.0679233,VALID,17.9392,VALID,108,VALID,0.920218,
2003-03-01, 02:15:00,VALID,916.19,VALID,0,VALID,96.1053,VALID,-0.0339617,VALID,17.9682,VALID,107,VALID,0.808377,
2003-03-01, 02:16:00,VALID,916.201,VALID,0,VALID,96.0646,VALID,-0.0509425,VALID,17.9874,VALID,98,VALID,0.874566,
2003-03-01, 02:17:00,VALID,916.208,VALID,0,VALID,95.2775,VALID,-0.0339617,VALID,17.9551,VALID,85,VALID,0.856297,
2003-03-01, 02:18:00,VALID,916.213,VALID,0,VALID,94.8719,VALID,-0.0339617,VALID,17.8679,VALID,72,VALID,0.865921,
2003-03-01, 02:19:00,VALID,916.211,VALID,0,VALID,94.7829,VALID,-0.0679233,VALID,17.7938,VALID,68,VALID,1.02803,
2003-03-01, 02:20:00,VALID,916.212,VALID,0,VALID,95.2445,VALID,-0.0509425,VALID,17.7582,VALID,69,VALID,1.16122,
2003-03-01, 02:21:00,VALID,916.214,VALID,0,VALID,95.7277,VALID,-0.0169808,VALID,17.7412,VALID,72,VALID,1.10569,
2003-03-01, 02:22:00,VALID,916.194,VALID,0,VALID,96.4296,VALID,0.0169808,VALID,17.7569,VALID,78,VALID,1.34592,
2003-03-01, 02:23:00,VALID,916.195,VALID,0,VALID,96.717,VALID,0.0509425,VALID,17.7989,VALID,86,VALID,1.56629,
2003-03-01, 02:24:00,VALID,916.178,VALID,0,VALID,97.1722,VALID,0.0509425,VALID,17.8667,VALID,100,VALID,1.85621,
2003-03-01, 02:25:00,VALID,916.169,VALID,0,VALID,97.3248,VALID,0.101885,VALID,17.9701,VALID,111,VALID,1.50781,
2003-03-01, 02:26:00,VALID,916.181,VALID,0,VALID,96.942,VALID,0.0679233,VALID,18.0502,VALID,120,VALID,1.55279,
2003-03-01, 02:27:00,VALID,916.181,VALID,0,VALID,96.4029,VALID,0.0679233,VALID,18.1185,VALID,118,VALID,1.31749,
2003-03-01, 02:28:00,VALID,916.179,VALID,0,VALID,95.8726,VALID,0.0339617,VALID,18.154,VALID,102,VALID,1.53906,
2003-03-01, 02:29:00,VALID,916.181,VALID,0,VALID,95.3894,VALID,0.0849042,VALID,18.1702,VALID,101,VALID,1.24384,
2003-03-01, 02:30:00,VALID,916.179,VALID,0,VALID,94.8197,VALID,0.0509425,VALID,18.1803,VALID,110,VALID,1.28019,
2003-03-01, 02:31:00,VALID,916.184,VALID,0,VALID,94.2602,VALID,0.0679233,VALID,18.1413,VALID,115,VALID,1.26333,
2003-03-01, 02:32:00,VALID,916.164,VALID,0,VALID,93.0662,VALID,0.0509425,VALID,18.0407,VALID,86,VALID,1.03812,
2003-03-01, 02:33:00,VALID,916.157,VALID,0,VALID,93.2379,VALID,0.101885,VALID,17.9085,VALID,83,VALID,1.22938,
2003-03-01, 02:34:00,VALID,916.15,VALID,0,VALID,93.7681,VALID,0.0339617,VALID,17.8504,VALID,105,VALID,1.41298,
2003-03-01, 02:35:00,VALID,916.156,VALID,0,VALID,93.8749,VALID,0.0169808,VALID,17.8252,VALID,118,VALID,1.48414,
2003-03-01, 02:36:00,VALID,916.152,VALID,0,VALID,93.716,VALID,-0.0169808,VALID,17.7832,VALID,125,VALID,1.29666,
2003-03-01, 02:37:00,VALID,916.155,VALID,0,VALID,93.7198,VALID,0,VALID,17.7643,VALID,125,VALID,1.29435,
2003-03-01, 02:38:00,VALID,916.159,VALID,0,VALID,93.7376,VALID,0,VALID,17.7451,VALID,127,VALID,1.5,
2003-03-01, 02:39:00,VALID,916.148,VALID,0,VALID,93.7084,VALID,-0.0169808,VALID,17.716,VALID,121,VALID,1.07227,
2003-03-01, 02:40:00,VALID,916.148,VALID,0,VALID,93.8444,VALID,0,VALID,17.7066,VALID,122,VALID,1.01649,
2003-03-01, 02:41:00,VALID,916.146,VALID,0,VALID,93.8711,VALID,-0.0169808,VALID,17.6966,VALID,126,VALID,0.964489,
2003-03-01, 02:42:00,VALID,916.144,VALID,0,VALID,93.9296,VALID,-0.0339617,VALID,17.6708,VALID,138,VALID,1.00253,
2003-03-01, 02:43:00,VALID,916.155,VALID,0,VALID,94.0072,VALID,-0.0339617,VALID,17.6643,VALID,129,VALID,1.12247,
2003-03-01, 02:44:00,VALID,916.152,VALID,0,VALID,94.2818,VALID,0,VALID,17.6546,VALID,114,VALID,1.14063,
2003-03-01, 02:45:00,VALID,916.166,VALID,0,VALID,94.6366,VALID,-0.0339617,VALID,17.677,VALID,109,VALID,1.10308,
2003-03-01, 02:46:00,VALID,916.178,VALID,0,VALID,94.5196,VALID,-0.0169808,VALID,17.7033,VALID,115,VALID,0.953993,
2003-03-01, 02:47:00,VALID,916.194,VALID,0,VALID,94.7434,VALID,-0.0169808,VALID,17.6865,VALID,121,VALID,1.14986,
2003-03-01, 02:48:00,VALID,916.225,VALID,0,VALID,94.8935,VALID,0,VALID,17.6994,VALID,115,VALID,1.18919,
2003-03-01, 02:49:00,VALID,916.222,VALID,0,VALID,95.0906,VALID,0,VALID,17.7121,VALID,120,VALID,1.28355,
2003-03-01, 02:50:00,VALID,916.238,VALID,0,VALID,95.1554,VALID,0,VALID,17.7576,VALID,123,VALID,1.2152,
2003-03-01, 02:51:00,VALID,916.243,VALID,0,VALID,94.9685,VALID,0,VALID,17.7836,VALID,128,VALID,1.12044,
2003-03-01, 02:52:00,VALID,916.23,VALID,0,VALID,94.5273,VALID,0,VALID,17.7871,VALID,129,VALID,0.938368,
2003-03-01, 02:53:00,VALID,916.223,VALID,0,VALID,94.5565,VALID,0,VALID,17.7543,VALID,131,VALID,1.00568,
2003-03-01, 02:54:00,VALID,916.223,VALID,0,VALID,94.9583,VALID,0,VALID,17.7677,VALID,123,VALID,1.24599,
2003-03-01, 02:55:00,VALID,916.213,VALID,0,VALID,94.8566,VALID,0,VALID,17.7834,VALID,125,VALID,1.23621,
2003-03-01, 02:56:00,VALID,916.206,VALID,0,VALID,94.7854,VALID,0,VALID,17.7866,VALID,128,VALID,1.07718,
2003-03-01, 02:57:00,VALID,916.202,VALID,0,VALID,94.8986,VALID,0,VALID,17.8026,VALID,121,VALID,0.977431,
2003-03-01, 02:58:00,VALID,916.189,VALID,0,VALID,94.779,VALID,-0.0169808,VALID,17.8162,VALID,120,VALID,1.227,
2003-03-01, 02:59:00,VALID,916.18,VALID,0,VALID,94.9278,VALID,0,VALID,17.8321,VALID,120,VALID,1.30492,
2003-03-01, 03:00:00,VALID,916.18,VALID,0,VALID,94.8782,VALID,0,VALID,17.8549,VALID,119,VALID,1.53674,
2003-03-01, 03:01:00,VALID,916.18,VALID,0,VALID,94.9278,VALID,0,VALID,17.8773,VALID,118,VALID,1.75988,
2003-03-01, 03:02:00,VALID,916.171,VALID,0,VALID,94.6328,VALID,-0.0169808,VALID,17.9355,VALID,115,VALID,1.39867,
2003-03-01, 03:03:00,VALID,916.164,VALID,0,VALID,94.2577,VALID,-0.0169808,VALID,17.9546,VALID,104,VALID,1.15234,
2003-03-01, 03:04:00,VALID,916.171,VALID,0,VALID,93.9983,VALID,-0.0339617,VALID,17.9678,VALID,104,VALID,1.19553,
2003-03-01, 03:05:00,VALID,916.157,VALID,0,VALID,94.1649,VALID,0,VALID,17.9676,VALID,102,VALID,1.56534,
2003-03-01, 03:06:00,VALID,916.164,VALID,0,VALID,93.8025,VALID,0,VALID,17.9969,VALID,94,VALID,1.51056,
2003-03-01, 03:07:00,VALID,916.156,VALID,0,VALID,93.571,VALID,0,VALID,17.9939,VALID,96,VALID,1.29389,
2003-03-01, 03:08:00,VALID,916.153,VALID,0,VALID,93.5494,VALID,0.0169808,VALID,18.0036,VALID,91,VALID,1.28409,
2003-03-01, 03:09:00,VALID,916.152,VALID,0,VALID,93.4528,VALID,0,VALID,17.9999,VALID,86,VALID,1.29275,
2003-03-01, 03:10:00,VALID,916.144,VALID,0,VALID,93.3167,VALID,-0.0169808,VALID,17.9936,VALID,83,VALID,1.37609,
2003-03-01, 03:11:00,VALID,916.143,VALID,0,VALID,93.1857,VALID,0,VALID,17.9842,VALID,89,VALID,1.29616,
2003-03-01, 03:12:00,VALID,916.113,VALID,0,VALID,92.8945,VALID,0,VALID,17.9648,VALID,85,VALID,1.15625,
2003-03-01, 03:13:00,VALID,916.095,VALID,0,VALID,92.4368,VALID,0,VALID,17.8866,VALID,81,VALID,1.12316,
2003-03-01, 03:14:00,VALID,916.068,VALID,0,VALID,92.5092,VALID,0,VALID,17.8261,VALID,87,VALID,1.31534,
2003-03-01, 03:15:00,VALID,916.043,VALID,0,VALID,93.2557,VALID,0,VALID,17.7675,VALID,102,VALID,1.28038,
2003-03-01, 03:16:00,VALID,916.016,VALID,0,VALID,93.7312,VALID,0,VALID,17.7673,VALID,116,VALID,1.50043,
2003-03-01, 03:17:00,VALID,916.021,VALID,0,VALID,93.7134,VALID,-0.0339617,VALID,17.8028,VALID,121,VALID,1.24171,
2003-03-01, 03:18:00,VALID,916.023,VALID,0,VALID,93.1641,VALID,0,VALID,17.7998,VALID,106,VALID,0.805321,
2003-03-01, 03:19:00,VALID,916.025,VALID,0,VALID,91.2529,VALID,0,VALID,17.6577,VALID,74,VALID,0.414752,
2003-03-01, 03:20:00,VALID,916.046,VALID,0,VALID,90.8015,VALID,0.0169808,VALID,17.4279,VALID,74,VALID,0.369318,
2003-03-01, 03:21:00,VALID,916.052,VALID,0,VALID,91.3127,VALID,0,VALID,17.2541,VALID,74,VALID,0.472873,
2003-03-01, 03:22:00,VALID,916.06,VALID,0,VALID,92.2091,VALID,0,VALID,17.1148,VALID,74,VALID,0.449653,
2003-03-01, 03:23:00,VALID,916.05,VALID,0,VALID,92.5245,VALID,0,VALID,16.9959,VALID,70,VALID,0.609138,
2003-03-01, 03:24:00,VALID,916.048,VALID,0,VALID,92.8411,VALID,0,VALID,16.8312,VALID,67,VALID,0.730785,
2003-03-01, 03:25:00,VALID,916.054,VALID,0,VALID,93.4489,VALID,0.0169808,VALID,16.7209,VALID,68,VALID,0.636949,
2003-03-01, 03:26:00,VALID,916.052,VALID,0,VALID,94.6265,VALID,0,VALID,16.6695,VALID,77,VALID,0.753551,
2003-03-01, 03:27:00,VALID,916.058,VALID,0,VALID,95.7302,VALID,0,VALID,16.6792,VALID,83,VALID,0.730035,
2003-03-01, 03:28:00,VALID,916.057,VALID,0,VALID,96.8568,VALID,0,VALID,16.7698,VALID,108,VALID,0.655599,
2003-03-01, 03:29:00,VALID,916.068,VALID,0,VALID,97.0374,VALID,0,VALID,16.8699,VALID,126,VALID,0.561316,
2003-03-01, 03:30:00,VALID,916.081,VALID,0,VALID,96.4092,VALID,0.0169808,VALID,16.8824,VALID,126,VALID,0.419764,
2003-03-01, 03:31:00,VALID,916.079,VALID,0,VALID,95.6603,VALID,0,VALID,16.8378,VALID,119,VALID,0.496783,
2003-03-01, 03:32:00,VALID,916.075,VALID,0,VALID,95.9731,VALID,0,VALID,16.7894,VALID,112,VALID,0.511127,
2003-03-01, 03:33:00,VALID,916.073,VALID,0,VALID,96.1308,VALID,0,VALID,16.7567,VALID,112,VALID,0.386285,
2003-03-01, 03:34:00,VALID,916.074,VALID,0,VALID,96.0417,VALID,0,VALID,16.7183,VALID,122,VALID,0.549262,
2003-03-01, 03:35:00,VALID,916.08,VALID,0,VALID,96.3902,VALID,0,VALID,16.6925,VALID,128,VALID,0.4491,
2003-03-01, 03:36:00,VALID,916.105,VALID,0,VALID,96.8276,VALID,0,VALID,16.702,VALID,137,VALID,0.612331,